Regional Weather Roundup
Issued by NWS

Home | Current Version | Previous Version | Graphics & Text | Print | Product List | Glossary On
Versions: 1 2 3 4 5 6 7 8 9 10 11 12 13 14 15 16 17 18 19 20 21 22 23 24 25 26 27 28 29 30 31 32 33 34 35 36 37 38 39 40 41 42 43 44 45 46 47 48 49 50
000
ASUS43 KFSD 262002
RWRSD

WEATHER ROUNDUP FOR SOUTH DAKOTA
NATIONAL WEATHER SERVICE SIOUX FALLS SD
300 PM CDT FRI AUG 26 2016

NOTE: "FAIR" INDICATES FEW OR NO CLOUDS BELOW 12,000 FEET WITH NO
SIGNIFICANT WEATHER AND/OR OBSTRUCTIONS TO VISIBILITY.


SDZ001>005-009-010-012>017-262100-
NORTHWEST AND NORTH CENTRAL SOUTH DAKOTA

CITY           SKY/WX    TMP DP  RH WIND       PRES   REMARKS
BUFFALO          N/A     61  53  75 NE12      30.01F
FAITH            N/A     64  55  72 S17       30.08R
MOBRIDGE       PTSUNNY   64  52  64 S15       30.09S
$$

SDZ012>016-024>037-041>051-057-063-072>074-262100-
SOUTHWEST AND SOUTH CENTRAL SOUTH DAKOTA

CITY           SKY/WX    TMP DP  RH WIND       PRES   REMARKS
RAPID CTY ARPT PTSUNNY   63  54  72 SE9       30.08F
PIERRE         CLOUDY    60  55  83 E8        30.09F
CUSTER         MOSUNNY   61  49  64 S9        30.13F
ELLSWORTH AFB  MOSUNNY   64  54  72 S10       30.06
PHILIP         CLOUDY    63  58  83 SE8       30.09F
PINE RIDGE     CLOUDY    64  59  83 S15G22    30.09F
WINNER         MOCLDY    68  55  63 NE9       30.13S
$$

SDZ004>011-016>023-039-040-262100-
NORTHEAST SOUTH DAKOTA

CITY           SKY/WX    TMP DP  RH WIND       PRES   REMARKS
ABERDEEN       CLOUDY    62  55  77 SW6       30.12F
WATERTOWN      MOSUNNY   71  51  49 VRB3      30.14F
BROOKINGS      CLOUDY    70  52  52 S5        30.14F
$$

SDZ017-020-022-023-036>040-048>070-262100-
SOUTHEAST SOUTH DAKOTA

CITY           SKY/WX    TMP DP  RH WIND       PRES   REMARKS
SIOUX FALLS    CLOUDY    73  54  51 S8        30.13F
HURON          CLOUDY    69  53  56 NW13      30.13F
CHAMBERLAIN    CLOUDY    71  55  58 NE6       30.12F
MITCHELL       CLOUDY    75  51  43 CALM      30.12F
YANKTON        CLOUDY    73  55  53 E8        30.10F
$$

ABBREVIATIONS USED IN REMARKS
   TC - TEMPERATURE IN CELSIUS
  WCI - WIND CHILL INDEX
   HX - HEAT INDEX
  VSB - VISIBILITY





USA.gov is the U.S. government's official web portal to all federal, state and local government web resources and services.